www.pogodaiklimat.ru
ПОГОДА в Сан-Хуане
Время
и дата
18:56 28.01
19:56 28.01
20:56 28.01
21:56 28.01
22:56 28.01
23:56 28.01
00:56 29.01
01:56 29.01
02:56 29.01
03:56 29.01
04:56 29.01
05:56 29.01
06:56 29.01
07:56 29.01
08:56 29.01
09:56 29.01
10:56 29.01
11:56 29.01
12:56 29.01
13:56 29.01
14:56 29.01
15:56 29.01
16:56 29.01
17:56 29.01
18:56 29.01
19:56 29.01
20:56 29.01
21:56 29.01
22:56 29.01
23:56 29.01
00:56 30.01
01:56 30.01
02:56 30.01
03:56 30.01
04:56 30.01
05:56 30.01
06:56 30.01
07:56 30.01
08:56 30.01
09:56 30.01
10:56 30.01
11:56 30.01
12:56 30.01
13:56 30.01
14:56 30.01
15:56 30.01
16:56 30.01
17:56 30.01
Ветер
(напр.,м/с)
Видим. Явления Облачность Т
(С)
Тd
(С)
f
(%)
Тe
(С)
Тes
(С)
Комфортность P
(гПа)
Po
(гПа)
Тmin
(С)
Tmax
(С)
R
(мм)
R24
(мм)
S
(см)
СВ 5 16 км 8/8 660 м +25.6 +19.4 69 +31 +31 очень
душно
1017.6 1017.1
СВ 6 16 км 8/8 720 м +25.6 +20.0 71 +31 +31 очень
душно
1018.1 1017.8 +25.0 +28.3
СВ 5 13 км слабый дождь 10/10 720 m
[Ns]
+23.3 +21.7 91 +32 +32 очень
душно
1019.1 1018.8
В 2 16 км 10/8 720 m
[Ac]
+22.8 +21.1 90 +30 +30 очень
душно
1019.1 1018.8
СВ 6
{8}
16 км 5/5 780 м +23.9 +21.1 84 +30 +30 очень
душно
1018.8 1018.5 2.3
В 6 16 км 5/5 780 м +24.4 +20.0 76 +30 +30 очень
душно
1018.7 1018.5
В 6
{12}
8 км слабый дождь, дымка 8/8 540 m
[Ns]
+22.8 +21.1 90 +30 +30 очень
душно
1018.1 1017.8
ЮВ 2 16 км 5/5 780 м +22.8 +21.7 94 +31 +31 очень
душно
1017.4 1017.1 +22.2 +25.6 5.3
нст 2 16 км 10/10 540 м +22.8 +21.1 90 +30 +30 очень
душно
1016.7 1016.5
В 2 16 км 5/5 990 м +23.3 +20.6 85 +31 +31 очень
душно
1016.4 1016.1
ЮВ 2 16 км 2/2 990 м +23.3 +20.0 82 +30 +30 очень
душно
1016.4 1016.1 1.0
Ю 2 16 км 5/5 900 м +22.8 +20.6 87 +30 +30 очень
душно
1016.8 1016.5
штиль 0 16 км 8/8 900 м +22.8 +20.6 87 +30 +30 очень
душно
1017.5 1017.1
ЮВ 2 16 км 8/8 1020 м +23.3 +20.0 82 +30 +30 очень
душно
1018.3 1017.8 +22.2 +23.3 1.0 6.9
В 6 16 км 8/8 720 м +25.6 +21.1 76 +32 +32 очень
душно
1018.9 1018.5
В 9 14 км слабый дождь 8/8 720 m
[Ns]
+24.4 +21.1 82 +31 +31 очень
душно
1020.0 1019.5
В 4 13 км слабый дождь 8/8 600 m
[Ns]
+23.9 +21.1 84 +30 +31 очень
душно
1019.8 1019.5 1.5
В 5 16 км 8/8 900 м +26.7 +22.2 76 +35 +36 очень
душно
1018.8 1018.5
СВ 8
{11}
16 км 5/5 990 m
[Ac]
+27.8 +20.6 65 +35 +36 очень
душно
1018.0 1017.8
СВ 7 16 км 5/5 1020 m
[Ac]
+28.3 +20.6 63 +35 +37 очень
душно
1017.1 1016.8 +23.3 +28.3 2.3
В 8 16 км 5/5 720 m
[Ac]
+27.8 +20.6 65 +35 +36 очень
душно
1016.6 1016.5
В 6 14 км слабый дождь 8/8 810 m
[Ns]
+25.6 +22.2 82 +33 +34 очень
душно
1016.8 1016.5
СВ 8 16 км 5/5 720 м +26.7 +21.1 71 +34 +34 очень
душно
1016.9 1016.5
СВ 8 14 км слабый дождь 8/8 720 m
[Ns]
+26.1 +20.6 72 +33 +33 очень
душно
1017.2 1016.8
СВ 5 16 км 8/5 780 m
[Ac]
+25.0 +20.6 77 +31 +31 очень
душно
1017.5 1017.1
СВ 6 16 км 5/5 780 м +25.6 +21.1 76 +32 +32 очень
душно
1018.1 1017.8 +25.0 +28.3
СВ 6 16 км 5/5 840 м +25.6 +20.0 71 +31 +31 очень
душно
1018.4 1018.1
СВ 7 16 км 5/5 780 м +25.6 +21.1 76 +32 +32 очень
душно
1018.8 1018.5
В 6 16 км 5/5 720 м +25.6 +20.6 74 +32 +32 очень
душно
1018.7 1018.5
В 7 16 км 5/5 840 м +25.0 +20.6 77 +31 +31 очень
душно
1018.3 1018.1
В 7
{9}
16 км 2/2 840 м +24.4 +21.1 82 +31 +31 очень
душно
1017.9 1017.5
В 6 16 км 8/8 720 м +25.0 +20.6 77 +31 +31 очень
душно
1017.2 1016.8 +24.4 +25.6 1.8
В 9
{12}
16 км 10/10 810 м +25.0 +20.6 77 +31 +31 очень
душно
1016.5 1016.1
В 7 16 км 5/5 870 м +25.0 +20.0 74 +31 +31 очень
душно
1015.9 1015.8
СВ 7 16 км 5/5 870 м +25.0 +18.3 66 +29 +29 душно 1016.1 1015.8 0.3
СВ 7 16 км 2/2 960 м +25.0 +18.9 69 +30 +30 душно 1016.5 1016.1
СВ 7
{9}
16 км 5/5 1050 м +25.0 +18.9 69 +30 +30 душно 1017.2 1016.8
СВ 7 16 км 5/5 960 м +25.6 +19.4 69 +31 +31 очень
душно
1018.3 1017.8 +23.9 +25.6 0.3 4.3
СВ 7 16 км 2/2 1050 м +26.7 +18.9 62 +32 +32 очень
душно
1018.9 1018.5
В 7 16 км 2/2 990 м +27.8 +19.4 60 +33 +34 очень
душно
1019.5 1019.2
СВ 8
{11}
16 км 5/5 960 м +27.8 +20.6 65 +35 +35 очень
душно
1019.2 1018.8
СВ 7
{11}
16 км 5/5 990 m
[Ac]
+27.8 +21.1 67 +35 +37 очень
душно
1018.5 1018.1
СВ 7
{11}
16 км 8/5 930 m
[Ac]
+27.8 +20.0 63 +34 +35 очень
душно
1017.8 1017.5
СВ 8
{10}
16 км 5/5 870 м +27.8 +20.6 65 +35 +36 очень
душно
1016.9 1016.5 +25.6 +28.3
СВ 6 16 км 5/5 870 м +27.8 +21.1 67 +35 +37 очень
душно
1016.2 1015.8
СВ 7 16 км 8/8 810 м +27.2 +20.6 67 +34 +34 очень
душно
1016.1 1015.8
СВ 7
{10}
16 км 8/8 810 м +26.7 +20.0 67 +33 +33 очень
душно
1016.5 1016.1
СВ 5 16 км 8/8 930 м +26.7 +20.0 67 +33 +33 очень
душно
1016.9 1016.8
Местоположение метеостанции Luis Munoz Marin International Airport: широта 18.4500 долгота -66.0000 высота над уровнем моря 3 м.
В архиве по умолчанию представлена погода в Сан-Хуане за последние 1-2 суток. Обновление информации о фактической погоде в базе происходит ежечасно! Архивные данные за месяц целиком и за предыдущие месяцы Вы можете получить, выбрав интересующий диапазон дат из раскрывающегося списка и нажав кнопку "Ввод!".
Внимание! Архив погоды МЕТАР в базе сайта по станциям, не включенным в климатический монитор, хранится не более 60 дней. Нет смысла пытаться выбрать более раннюю дату.
*Определитесь, кто Вы:
Внимание! Время в таблицах - местное (без учета летнего времени). Для получения всемирного времени необходимо вычесть поправку, которая равна -4 ч.
Смотрите также архив погоды в соседних городах и на ближайших метеорологических станциях:
Партнеры нашего сайта:      
Пояснения к столбцам:
  • Ветер - указаны скорость ветра в м/с - средняя за 10 мин, порывы в срок и между сроками (в фигурных скобках) и направление, откуда дует ветер: С - северный,
  • СВ - северо-восточный, В - восточный, ЮВ - юго-восточный, Ю - южный, ЮЗ - юго-западный, З - западный, СЗ - северо-западный.
  • Видимость - горизонтальная дальность видимости в метрах или километрах. При видимости от 1 до 10 км при отсутствии осадков обычно наблюдается дымка, при ухудшении видимости до 1 км и менее - туман. В сухую погоду видимость может ухудшаться дымом, пылью или мглою.
  • Явления - указаны атмосферные явления, наблюдавшиеся в срок или в последний час перед сроком; фигурными скобками обозначены явления, наблюдавшиеся между сроками (за 1-3 часа до срока); квадратными скобками обозначены град или гололедные отложения с указанием их диаметра в мм.
  • Облачность - указаны через наклонную черту общая и нижняя облачность в баллах и высота нижней границы облаков в метрах; квадратными скобками обозначены формы облаков: Ci - перистые, Cs - перисто-слоистые, Cc - перисто-кучевые, Ac - высококучевые, As - высокослоистые, Sc - слоисто-кучевые, Ns - слоисто-дождевые, Cu - кучевые, Cb - кучево-дождевые. Подробнее классификацию облаков см. в Атласе облаков (PDF).
  • T - Температура воздуха - температура, измеренная на высоте 2 м над землей.
  • Td - Температура точки росы - температура, при понижении до которой содержащийся в воздухе водяной пар достигнет насыщения.
  • f - Относительная влажность воздуха - влажноcть воздуха, измеренная на высоте 2 м над землей.
  • Te - Эффективная температура - температура, которую ощущает одетый по сезону человек в тени. Характеристика душности погоды. При расчете учитывается влияние влажности воздуха и скорости ветра на теплоощущения человека.
  • Tes - Эффективная температура на солнце - температура, которую ощущает человек, с поправкой на солнечный нагрев. Характеристика знойности погоды. Зависит от высоты солнца над горизонтом, облачности и скорости ветра. Ночью, в пасмурную погоду, а также при ветре 12 м/с и более поправка равна нулю.
  • P - Атмосферное давление - приведенное к уровню моря атмосферное давление.
  • Po - Атмосферное давление - измеренное на уровне метеостанции атмосферное давление.
  • Tmin - Минимальная температура - минимум температуры воздуха на высоте 2 м над землей.
  • Tmax - Максимальная температура - максимум температуры воздуха на высоте 2 м над землей.
  • R - Количество осадков - Количество выпавших осадков за период времени, мм. При наведении курсора мыши на число - период времени, за который выпало указанное количество осадков.
  • R24 - Количество осадков - Количество выпавших осадков за 24 часа, мм.
  • S - Снежный покров - Высота снежного покрова, см. При наведении курсора мыши на число - состояние снежного покрова и степень покрытия местности в баллах.